PROBA-1 1 26958U 01049B 26105.60469568 .00001567 00000+0 10517-3 0 9997 2 26958 97.9625 111.9573 0054681 336.3096 23.5613 15.07259255334192 CUTE-1 (CO-55) 1 27844U 03031E 26105.30486740 .00000188 00000+0 10046-3 0 9998 2 27844 98.6765 114.6504 0009804 15.6729 344.4752 14.24296041182722 CUBESAT XI-IV (CO-57) 1 27848U 03031J 26104.98076810 .00000167 00000+0 92384-4 0 9991 2 27848 98.6796 114.0935 0010079 34.0369 326.1454 14.23586623182388 APRIZESAT 4 1 35684U 09041D 26105.47603540 .00000398 00000+0 54265-4 0 9998 2 35684 98.1432 179.5462 0043810 163.3690 196.8972 14.83782757902064 APRIZESAT 3 1 35686U 09041F 26105.36529242 .00001334 00000+0 12063-3 0 9994 2 35686 98.1977 255.6182 0060418 274.5336 84.8983 14.96031764906982 PROBA-2 1 36037U 09059B 26104.41616513 .00000128 00000+0 40256-4 0 9993 2 36037 98.2448 288.6535 0014354 115.6466 244.6215 14.54814509872258 APRIZESAT 5 1 37792U 11044E 26105.24173698 .00000421 00000+0 60693-4 0 9996 2 37792 98.2427 36.5162 0051694 204.1040 155.7752 14.80953818789475 APRIZESAT 6 1 37793U 11044F 26105.49781392 .00000375 00000+0 60671-4 0 9994 2 37793 98.2395 14.7111 0041864 287.2126 246.3558 14.76830651787896 PROBA-V 1 39159U 13021A 26105.49513511 .00000024 00000+0 28394-4 0 9992 2 39159 98.3552 87.2108 0003475 332.1480 27.9513 14.23583424672195 APRIZESAT 7 1 39416U 13066A 26105.42623843 .00000888 00000+0 93516-4 0 9996 2 39416 97.7654 59.5759 0037300 60.6100 299.8834 14.91406465671871 APRIZESAT 8 1 39425U 13066K 26105.58564539 .00000521 00000+0 62400-4 0 9991 2 39425 97.8172 53.9538 0047166 130.6776 229.8554 14.87517761670360 BUGSAT-1 (TITA) 1 40014U 14033E 26105.56538212 .00003105 00000+0 16881-3 0 9991 2 40014 98.0413 194.4927 0029120 37.2122 323.1119 15.14970127646354 SAUDISAT 4 1 40016U 14033G 26105.35627548 .00000342 00000+0 52016-4 0 9992 2 40016 97.7488 253.6978 0043422 278.0905 81.5382 14.79452202636785 APRIZESAT 9 1 40018U 14033J 26105.62644531 .00000287 00000+0 49692-4 0 9999 2 40018 97.8957 240.3899 0067095 42.4172 318.2196 14.74144682634343 APRIZESAT 10 1 40019U 14033K 26105.60855746 .00000350 00000+0 62654-4 0 9994 2 40019 97.9547 234.0010 0080181 113.3028 247.6643 14.70822376633052 TECHDEMOSAT-1 (TDS-1) 1 40076U 14037H 26105.38772355 .00004227 00000+0 24839-3 0 9999 2 40076 98.3801 91.4367 0008034 114.9822 245.2241 15.12305508638737 TECHNOSAT 1 42829U 17042E 26105.27580578 .00001146 00000+0 85717-4 0 9998 2 42829 97.4196 265.3711 0016736 311.5886 48.3905 15.04567865477243 FLYING LAPTOP 1 42831U 17042G 26105.65199212 .00001921 00000+0 15540-3 0 9991 2 42831 97.4399 263.7160 0019020 339.0146 21.0296 15.00759490477079 HAWK-A 1 43765U 18099H 26105.39091477 .00003539 00000+0 14719-3 0 9990 2 43765 97.3982 158.4642 0036605 144.6680 215.6994 15.23822924403533 HAWK-B 1 43794U 18099AN 26105.60163044 .00003485 00000+0 15318-3 0 9992 2 43794 97.4031 158.2151 0033312 160.6575 199.5934 15.22070804403510 HAWK-C 1 43799U 18099AT 26105.57172168 .00004989 00000+0 18557-3 0 9998 2 43799 97.3958 159.2546 0042532 145.4328 214.9690 15.27114525404350 SALSAT 1 46495U 20068K 26105.26708578 .00004087 00000+0 14851-3 0 9991 2 46495 97.8862 104.5486 0010710 153.9105 206.2675 15.28870140305744 HAWK-2C 1 47502U 21006CT 26105.60647961 .00003586 00000+0 11165-3 0 9998 2 47502 97.2347 151.1797 0008622 72.5712 287.6473 15.33886676289903 HAWK-2A 1 47505U 21006CW 26105.08763388 .00003731 00000+0 11606-3 0 9997 2 47505 97.2390 151.3118 0008276 77.2740 282.9428 15.33895860289825 HAWK-2B 1 47508U 21006CZ 26105.60661286 .00004254 00000+0 13191-3 0 9994 2 47508 97.2262 150.2561 0008752 73.5934 286.6271 15.33912703289901 HAWK-3B 1 48931U 21059BE 26105.48759216 .00025474 00000+0 26437-3 0 9994 2 48931 97.6705 296.5042 0005603 188.5905 171.5258 15.64628202268033 HAWK-3C 1 48948U 21059BX 26105.48727612 .00023556 00000+0 24459-3 0 9998 2 48948 97.6843 302.0766 0005891 189.2141 170.9010 15.64629428268039 HAWK-3A 1 48957U 21059CG 26105.48717619 .00023828 00000+0 24741-3 0 9990 2 48957 97.6781 299.3326 0005644 188.3539 171.7627 15.64628075268037 HAWK-5C 1 52754U 22057Y 26105.43185576 .00010046 00000+0 18652-3 0 9997 2 52754 97.6510 261.2046 0003777 296.3800 63.7062 15.49144822216627 HAWK-5B 1 52756U 22057AA 26105.49628523 .00011098 00000+0 20589-3 0 9999 2 52756 97.6512 259.6156 0003697 288.5882 71.4966 15.49137337216631 HAWK-5A 1 52757U 22057AB 26105.43146237 .00010145 00000+0 18835-3 0 9994 2 52757 97.6512 260.3805 0004093 292.3777 67.7039 15.49140486216626 HAWK-6B 1 55324U 23011A 26105.08671345 .00002688 00000+0 12232-3 0 9990 2 55324 40.4998 359.9541 0004265 298.1437 61.8941 15.22362831178224 HAWK-6C 1 55326U 23011C 26105.08610236 .00002779 00000+0 12618-3 0 9993 2 55326 40.4988 356.8030 0004543 286.8631 73.1680 15.22363479178239 HAWK-6A 1 55327U 23011D 26105.08612982 .00002750 00000+0 12494-3 0 9995 2 55327 40.4999 358.4218 0004285 286.8582 73.1757 15.22363303178237 HAWK-7A 1 56191U 23054P 26105.13656788 .00002740 00000+0 10705-3 0 9992 2 56191 97.2783 354.0801 0001077 242.3990 117.7140 15.26702506167408 HAWK-7B 1 56193U 23054R 26105.26758932 .00002692 00000+0 10523-3 0 9996 2 56193 97.2813 352.4488 0000295 282.3657 77.7549 15.26703338167426 HAWK-7C 1 56200U 23054Y 26105.26749053 .00002701 00000+0 10558-3 0 9998 2 56200 97.2788 353.2375 0000628 219.3273 140.7920 15.26702693167421